{"data":{"norad_id":64508,"intl_designator":"2025-134J","name":"KUIPER-00048","alt_names":[],"object_type":"PAYLOAD","status":"ACTIVE","operator":null,"country":"US","launch_date":"2025-06-23","launch_site_code":"AFETR","launch_vehicle":null,"mission":null,"orbit_class":"UNKNOWN","rcs_meters":null,"size_class":null,"mass_kg":null,"dimensions":null,"purposes":[],"wikipedia_slug":null,"has_3d_model":false,"image_url":null,"decayed_at":null,"tle_current":{"epoch":"2026-09-21T19:45:35.592768Z","epoch_age_seconds":66940,"freshness":"FRESH","line1":"1 64508U 25134J   26264.82332862  .00002058  00000+0  29884-3 0  9990","line2":"2 64508  51.8987  68.2584 0000649 101.0369 259.0666 14.79935706 69364","mean_motion":14.79935706,"eccentricity":6.49e-5,"inclination_deg":51.8987,"raan_deg":68.2584,"arg_perigee_deg":101.0369,"mean_anomaly_deg":259.0666,"bstar":0.00029884,"rev_number":6936,"period_min":97.301524259595,"perigee_km":629.07228961731,"apogee_km":629.9818844158,"semimajor_km":7007.6640870166,"source":"CELESTRAK","updated_at":"2026-09-22T09:00:29.807922Z"}}}